Погода в Знаменке

Россия / Курская область     51°28′24″N   37°45′23″E
темп.,
°C
ветер,
м/с
пор.,
м/с
влажн.,
%
обл.,
%
осадки,
мм/ч
давл.,
гПа
погр.,
м
22 октября, пт
пт2200:00+12юз9175812 0.0 1007778
03:00+10юз9176685 0.0 1006598
06:00+9юз81677100 0.0 1006553
09:00+10юз81478100 0.0 1006552
12:00+15зюз91457100 0.0 10081153
15:00+16зюз713445 0.0 10081631
18:00+12зюз512505 0.0 1010305
21:00+10зюз513575 0.0 1011357
23 октября, сб
сб2300:00+9юз512636 0.0 1012290
03:00+9юз4136399 0.0 1012425
06:00+8зюз486241 0.0 1012162
09:00+11юз5115384 0.0 1012568
12:00+13зюз6114618 0.0 10111411
15:00+13з811357 0.0 10112011
18:00+9зсз511525 0.0 1013409
21:00+6з510652 0.0 1015410
24 октября, вс
вс2400:00+4з4107142 0.0 1017380
03:00+3зюз4107733 0.0 1017282
06:00+2зюз49865 0.0 1018211
09:00+4зюз510736 0.0 1018352
12:00+7з71056100 0.0 10181263
15:00+8з7105599 0.1 10171521
18:00+3зсз51091100 0.4 1018742
21:00+2ссз71295100 1.5 1019691
25 октября, пн
пн2500:00+2ссз81170100 0.1 10211134
03:00+1ссз7107498 0.1 10231123
06:000ссз8117495 0.0 1025861
09:00+1ссз7106852 0.0 1028898
12:00+3с785792 0.0 10301179
15:00+4ссз6746100 0.0 10301205
18:00+1ссз37605 0.0 1032149
21:00−1ссз33695 0.0 103360
26 октября, вт
вт2600:00−1сз22730 0.0 103410
03:00−2з22760 0.0 103511
06:00−3зюз22781 0.0 103423
09:000зюз35635 0.0 1034171
12:00+5зюз45395 0.0 1032647
15:00+7зюз56315 0.0 1030860
18:00+3юз47435 0.0 1030114
21:00+2юз41047100 0.0 1029218